Regional Weather Roundup
Issued by NWS

Home | Current Version | Previous Version | Graphics & Text | Print | Product List | Glossary Off
Versions: 1 2 3 4 5 6 7 8 9 10 11 12 13 14 15 16 17 18 19 20 21 22 23 24 25 26 27 28 29 30 31 32 33 34 35 36 37 38 39 40 41 42 43 44 45 46 47 48 49 50

000
ASUS43 KMKX 302021
RWRWI

WISCONSIN REGIONAL WEATHER ROUNDUP
NATIONAL WEATHER SERVICE MILWAUKEE/SULLIVAN WI
300 PM CDT TUE JUN 30 2015

NOTE: "FAIR" INDICATES FEW OR NO CLOUDS BELOW 12,000 FEET WITH NO
SIGNIFICANT WEATHER AND/OR OBSTRUCTIONS TO VISIBILITY.

WIZ001-002-006>008-014>016-023>028-302100-
NORTHWEST WISCONSIN

CITY           SKY/WX    TMP DP  RH WIND       PRES   REMARKS
SUPERIOR ARPT  PTSUNNY   62  48  60 NE9       29.98F
ASHLAND        MOSUNNY   61  51  70 N8        30.01R
HAYWARD        PTSUNNY   64  52  64 NE12      29.98S
SIREN          PTSUNNY   69  53  55 NE5       29.96S
CUMBERLAND     MOSUNNY   68  52  56 N9        29.96S
RICE LAKE      MOSUNNY   69  51  52 N9        29.96S
CHETEK         MOSUNNY   70  55  58 NW5       29.93F
LADYSMITH      MOSUNNY   67  53  60 N8        29.96S
EAU CLAIRE     MOSUNNY   74  54  49 N10       29.90F
MENOMONIE      MOSUNNY   72  54  52 NW9       29.92F
NEW RICHMOND   MOSUNNY   71  55  56 NE7       29.95S
OSCEOLA        MOSUNNY   72  57  59 N7        29.97S
$$

WIZ003>005-009-010-017-018-302100-
NORTH CENTRAL WISCONSIN

CITY           SKY/WX    TMP DP  RH WIND       PRES   REMARKS
MANITOWISH WTR MOSUNNY   60  50  69 NE9G16    29.95S
ARBOR VITAE    CLOUDY    62  52  70 N12G17    29.94S
WOODRUFF       CLOUDY    62  52  70 N12G17    29.94S
RHINELANDER    CLOUDY    60  50  69 N10       29.93F
EAGLE RIVER    CLOUDY    58  48  69 N12G18    29.94S
LAND O LAKES   CLOUDY    54  48  81 N12       29.96S
PHILLIPS       PTSUNNY   63  52  68 N9        29.94R
TOMAHAWK       CLOUDY    61  51  69 N7        29.93F
MEDFORD        CLOUDY    63  53  68 N9        29.93S
MERRILL        CLOUDY    63  54  71 N8        29.92S
$$

WIZ029-030-035-036-043>047-302100-
CENTRAL WISCONSIN

CITY           SKY/WX    TMP DP  RH WIND       PRES   REMARKS
WAUSAU         CLOUDY    66  52  60 N12       29.89S
MOSINEE        NOT AVBL
MARSHFIELD     CLOUDY    70  53  54 N12G17    29.90S
STEVENS POINT  MOSUNNY   68  53  59 NW10      29.88S
WAUPACA        PTSUNNY   74  56  52 N9        29.85F
WAUTOMA        PTSUNNY   74  56  53 N12       29.85F
WISC RAPIDS    MOSUNNY   73  50  44 N12G18    29.89S
CAMP DOUGLAS   PTSUNNY   73  64  73 NW12      29.87S
$$

WIZ011>013-019>022-031-037>040-048>050-302100-
NORTHEAST WISCONSIN

CITY           SKY/WX    TMP DP  RH WIND       PRES   REMARKS
ANTIGO         CLOUDY    63  54  74 N10       29.90F
SHAWANO        CLOUDY    70  56  60 N9        29.86S
OCONTO         CLOUDY    66  55  67 N9        29.84S
STURGEON BAY   CLOUDY    63  55  77 N10       29.87S
GREEN BAY      CLOUDY    68  58  70 E7        29.85S
MANITOWOC      CLOUDY    66  58  75 MISG      29.84S
APPLETON       PTSUNNY   70  54  56 N14       29.86S
CLINTONVILLE   CLOUDY    68  54  60 N9        29.86S
OSHKOSH        MOSUNNY   73  58  59 N12G21    29.84S
$$

WIZ032>034-041-042-053>061-302100-
SOUTHWEST WISCONSIN

CITY           SKY/WX    TMP DP  RH WIND       PRES   REMARKS
LA CROSSE      SUNNY     74  59  59 NW9       29.88F
SPARTA         MOSUNNY   74  55  50 NW10      29.89S
VIROQUA        PTSUNNY   71  57  60 N10       29.90S
BOSCOBEL       MOSUNNY   78  61  55 NW9       29.87S HX  80
PRAIRIE DU CHI MOSUNNY   73  58  60 NW10      29.89R
PLATTEVILLE    MOSUNNY   74  63  69 N9        29.87F
$$

WIZ056-057-062-063-064-067-068-302100-
SOUTH CENTRAL WISCONSIN

CITY           SKY/WX    TMP DP  RH WIND       PRES   REMARKS
REEDSBURG      PTSUNNY   73  59  62 NW10      29.86R
BARABOO/DELLS  MOSUNNY   75  56  51 NW10      29.86S
LONE ROCK      MOSUNNY   75  59  57 CALM      29.86S
MINERAL POINT  PTSUNNY   73  59  60 N6        29.88S
MADISON        PTSUNNY   75  58  55 N8        29.84S
MIDDLETON      PTSUNNY   76  58  54 N8        29.85S
WATERTOWN      MOSUNNY   74  59  60 NW12      29.83S
MONROE         CLOUDY    72  61  68 N8        29.86S
JANESVILLE     PTSUNNY   73  61  64 NW8       29.84F
$$

WIZ051-052-058>065-066-070>072-302100-
SOUTHEAST WISCONSIN

CITY           SKY/WX    TMP DP  RH WIND       PRES   REMARKS
MILWAUKEE      PTSUNNY   63  58  83 NE20      29.83R
WAUKESHA       CLOUDY    70  57  64 NW12      29.84S
MILWAUKEE/TIMM PTSUNNY   66  57  72 NE7       29.84R
RACINE         PTSUNNY   64  58  80 NE14G24   29.85R
BURLINGTON     MOSUNNY   72  59  62 NW9G16    29.82F
KENOSHA        CLOUDY    70  60  70 NE12      29.83R
FOND DU LAC    PTSUNNY   72  59  63 N15       29.85R
SHEBOYGAN      CLOUDY    68  57  68 N13       29.83S
WEST BEND      CLOUDY    70  55  60 N9        29.83S
JUNEAU         PTSUNNY   73  59  60 NW10      29.84F
$$

LSZ147-162-302100-
LAKE SUPERIOR

STATION/POSITION TIME  TEMP    WIND        PRES    WAVE
                       AIR SEA DIR/SP/G            HT/PER
                 (UTC) (F)     (DEG/KT/KT) (MB)    (FT/S)
W MID LAKE BUOY  1950   43 39  150/ 10/ 10 1015.6F   1
DEVILS ISLAND    2000   52     130/ 13/ 15 1016.2R
SAXON HARBOR     1900   53      50/ 12/ 14 1015.9S
$$

LMZ867-665-643>646-302100-
LAKE MICHIGAN

STATION/POSITION TIME  TEMP    WIND        PRES    WAVE
                       AIR SEA DIR/SP/G            HT/PER
                 (UTC) (F)     (DEG/KT/KT) (MB)    (FT/S)
CHAMBERS ISLAND  1900   63     340/ 14/ 16 1010.8F
N MID LAKE BUOY  1950   49 44  320/ 14/ 17 1010.4F   2/ 4
NORTHPORT PIER   1900   57     350/ 16/ 18 1011.2S
SISTER BAY       1944   61      10/ 14/ 18   N/A
ALGOMA LAKESHORE 1940           90/ 11/ 13   N/A
KEWAUNEE LAKESHO 1900   62      30/  7/ 10 1010.2F
SHEBOYGAN LAKESH 2000   58      30/ 13/ 15 1010.7R
PORT WASHINGTON  1940   62      50/ 11/ 15 1010.8R
ATWATER BUOY     2000   59      20/ 14/ 17 1011.6R
MILWAUKEE LAKESH 2000   59      20/ 15/ 17   N/A
KENOSHA   LAKESH 2000   60      30/ 13/ 17 1010.2R
$$

TC  - TEMPERATURE IN CELSIUS
VSB - VISIBILITY IN STATUTE MILES
WCI - WIND CHILL INDEX
HX  - HEAT INDEX



USA.gov is the U.S. government's official web portal to all federal, state and local government web resources and services.